Terminal Aerodrome Forecast
Issued by NWS

Home | Current Version | Previous Version | Text Only | Print | Product List | Glossary On
Versions: 1 2 3 4 5 6 7 8 9 10 11 12 13 14 15 16 17
000
FTUS41 KALY 301311 AAA
TAFPSF
TAF AMD
KPSF 301311Z 3013/3112 21004KT P6SM SCT012
      TEMPO 3013/3016 BKN012
     FM301600 22005KT P6SM VCSH BKN035
     FM301900 24007KT 3SM SHRA BR VCTS SCT012 OVC035CB
     FM302200 24004KT P6SM SCT040
     FM310800 VRB02KT 2SM BR BKN004=

USA.gov is the U.S. government's official web portal to all federal, state and local government web resources and services.